Probability
0 0 0 0 0 0 0 0 0 0 0 0 0 0 0 0 0 0 0 0 0 0 0 0 0 0 0 0 0 0 0 0 0 0 0 0 0 0 0 0 0 0 0 0
0 0 0 0 0 0 0 0 0 0 0 0 0 0 0 0 0 0 0 0 0 0 0 0 0 0 0 0 0 0 0 0 0 0 0 0 0 0 0 0 0 0 0 0
0 0 0 0 0 0 0 0 0 0 0 0 0 0 0 0 0 0 0 0 0 0 0 0 0 0 0 0 0 0 0 0 0 0 0 0 0 0 0 0 0 0 0 0
0 0 0 0 0 0 0 0 0 0 0 0 0 0 0 0 0 0 0 0 0 0 0 0 0 0 0 0 0 0 0 0 0 0 0 0 0 0 0 0 0 0 0 0
0 0 0 0 0 0 0 0 0 0 0 0 0 0 0 0 0 0 0 0 0 0 0 0 0 0 0 0 0 0 0 0 0 0 0 0 0 0 0 0 0 0 0 0
0 0 0 0 0 0 0 0 0 0 0 0 0 0 0 0 0 0 0 0 0 0 0 0 0 0 0 0 0 0 0 0 0 0 0 0 0 0 0 0 0 0 0 0
0 0 0 0 0 0 0 0 0 0 0 0 0 0 0 0 0 0 0 0 0 0 0 0 0 0 0 0 0 0 0 0 0 0 0 0 0 0 0 0 0 0 0 0
0 0 0 0 0 0 0 0 0 0 0 0 0 0 0 0 0 0 0 0 0 0 0 0 0 0 0 0 0 0 0 0 0 0 0 0 0 0 0 0 0 0 0 0
0 0 0 0 0 0 0 0 0 0 0 0 0 0 0 0 0 0 0 0 0 0 0 0 0 0 0 0 0 0 0 0 0 0 0 0 0 0 0 0 0 0 0 0
0 0 0 0 0 0 0 0 0 0 0 0 0 0 0 0 0 0 0 0 0 0 0 0 0 0 0 0 0 0 0 0 0 0 0 0 0 0 0 0 0 0 0 0
0 0 0 0 0 0 0 0 0 0 0 0 0 0 0 0 0 0 0 0 0 0 0 0 0 0 0 0 0 0 0 0 0 0 0 0 0 0 0 0 0 0 0 0
0 0 0 0 0 0 0 0 0 0 0 0 0 0 0 0 0 0 0 0 0 0 0 0 0 0 0 0 0 0 0 0 0 0 0 0 0 0 0 0 0 0 0 0
0 0 0 0 0 0 0 0 0 0 0 0 0 0 0 0 0 0 0 0 0 0 0 0 0 0 0 0 0 0 0 0 0 0 0 0 0 0 0 0 0 0 0 0
0 0 0 0 0 0 0 0 0 0 0 0 0 0 0 0 0 0 0 0 0 0 0 0 0 0 0 0 0 0 0 0 0 0 0 0 0 0 0 0 0 0 0 0
0 0 0 0 0 0 0 0 0 0 0 0 0 0 0 0 0 0 0 0 0 0 0 0 0 0 0 0 0 0 0 0 0 0 0 0 0 0 0 0 0 0 0 0
0 0 0 0 0 0 0 0 0 0 0 0 0 0 0 0 0 0 0 0 0 0 0 0 0 0 0 0 0 0 0 0 0 0 0 0 0 0 0 0 0 0 0 0
0 0 0 0 0 0 0 0 0 0 0 0 0 0 0 0 0 0 0 0 0 0 0 0 0 0 0 0 0 0 0 0 0 0 0 0 0 0 0 0 0 0 0 0
0 0 0 0 0 0 0 0 0 0 0 0 0 0 0 0 0 0 0 0 0 0 0 0 0 0 0 0 0 0 0 0 0 0 0 0 0 0 0 0 0 0 0 0
0 0 0 0 0 0 0 0 0 0 0 0 0 0 0 0 0 0 0 0 0 0 0 0 0 0 0 0 0 0 0 0 0 0 0 0 0 0 0 0 0 0 0 0
0 0 0 0 0 0 0 0 0 0 0 0 0 0 0 0 0 0 0 0 0 0 0 0 0 0 0 0 0 0 0 0 0 0 0 0 0 0 0 0 0 0 0 0
0 0 0 0 0 0 0 0 0 0 0 0 0 0 0 0 0 0 0 0 0 0 0 0 0 0 0 0 0 0 0 0 0 0 0 0 0 0 0 0 0 0 0 0
0 0 0 0 0 0 0 0 0 0 0 0 0 0 0 0 0 0 0 0 0 0 0 0 0 0 0 0 0 0 0 0 0 0 0 0 0 0 0 0 0 0 0 0
0 0 0 0 0 0 0 0 0 0 0 0 0 0 0 0 0 0 0 0 0 0 0 0 0 0 0 0 0 0 0 0 0 0 0 0 0 0 0 0 0 0 0 0
0 0 0 0 0 0 0 0 0 0 0 0 0 0 0 0 0 0 0 0 0 0 0 0 0 0 0 0 0 0 0 0 0 0 0 0 0 0 0 0 0 0 0 0
0 0 0 0 0 0 0 0 0 0 0 0 0 0 0 0 0 0 0 0 0 0 0 0 0 0 0 0 0 0 0 0 0 0 0 0 0 0 0 0 0 0 0 0
0 0 0 0 0 0 0 0 0 0 0 0 0 0 0 0 0 0 0 0 0 0 0 0 0 0 0 0 0 0 0 0 0 0 0 0 0 0 0 0 0 0 0 0
0 0 0 0 0 0 0 0 0 0 0 0 0 0 0 0 0 0 0 0 0 0 0 0 0 0 0 0 0 0 0 0 0 0 0 0 0 0 0 0 0 0 0 0
Wind_Speed
3 2 2 0 0 2 2 5 5 4 4 7 6 5 6 6 7 7 8 8 8 7 6 6 6 6 6 7 7 7 7 8 7 7 7 7 8 8 8 8 9 8 8 8
1 1 1 2 3 2 3 4 4 3 5 7 4 3 4 5 5 6 7 7 8 7 7 6 6 5 5 6 6 5 6 6 6 6 7 7 7 7 8 8 8 9 9 9
1 1 4 6 8 8 5 5 6 6 6 3 3 4 4 4 5 5 6 6 6 6 6 6 5 4 4 4 4 5 6 6 6 6 6 6 6 6 7 6 7 8 9 9
2 2 4 7 3 7 6 6 8 6 5 5 6 4 4 4 4 6 6 6 6 6 7 5 4 3 3 3 4 4 5 5 6 6 6 5 5 6 5 5 5 6 7 8
3 1 8 7 4 7 6 6 8 9 7 4 3 1 4 5 4 5 5 5 5 5 5 5 5 4 2 3 4 4 4 5 5 5 5 5 5 5 4 4 5 5 5 7
4 1 5 6 4 6 5 6 7 10 8 5 6 1 5 4 3 4 5 4 4 5 4 5 5 3 2 3 3 3 3 3 4 5 5 5 5 4 4 4 4 4 6 6
4 4 10 6 5 8 4 8 4 9 8 9 8 7 5 3 3 3 4 4 4 4 5 5 5 3 2 3 3 2 1 3 4 4 5 5 5 4 4 4 5 5 5 5
5 4 10 5 9 10 12 3 5 8 8 9 8 5 4 4 3 3 3 4 4 4 5 5 5 4 4 4 3 1 3 4 4 5 4 4 5 5 5 5 5 6 6 6
10 11 6 9 9 7 6 6 7 8 7 8 7 5 4 3 2 2 2 3 3 4 5 5 5 4 4 5 3 2 4 4 4 5 5 4 5 5 5 5 4 5 5 6
6 9 7 8 6 3 6 7 7 8 8 8 7 6 5 3 2 1 2 2 3 3 4 5 5 4 4 4 2 3 4 4 3 4 4 4 4 4 4 4 4 4 5 5
7 8 4 6 10 8 6 5 6 6 7 8 8 6 5 4 3 2 1 1 2 2 3 4 5 5 5 4 2 3 3 3 3 3 3 3 3 2 2 2 2 2 2 3
9 8 7 7 8 10 9 9 9 9 7 6 7 7 5 4 3 2 2 1 1 2 3 4 4 5 5 4 1 3 3 2 2 2 1 1 1 2 1 1 3 4 4 4
6 5 6 3 4 10 10 10 10 10 9 7 6 6 6 4 3 3 2 2 2 2 3 3 4 5 5 4 1 2 3 3 2 2 1 1 0 1 2 3 4 5 7 8
4 5 3 5 6 9 9 9 9 8 7 7 7 5 5 4 3 4 4 3 2 2 2 2 3 4 5 4 1 2 3 3 3 2 2 1 1 1 1 1 2 3 4 7
9 8 6 4 4 7 7 7 7 7 7 6 6 6 6 6 6 6 4 3 2 2 2 2 3 4 4 3 1 2 2 2 2 2 2 1 1 1 0 1 1 2 2 3
7 6 4 5 6 8 8 9 9 10 9 8 7 7 8 7 6 4 4 3 3 3 3 2 3 4 4 3 1 1 2 4 4 2 2 2 2 1 1 1 1 1 1 2
9 8 8 7 8 9 10 11 12 11 9 9 10 9 7 5 4 5 5 4 4 4 4 4 4 3 3 2 1 1 1 2 4 3 2 3 2 3 2 2 2 2 2 2
10 11 10 9 9 10 11 10 9 10 10 11 9 7 7 8 8 8 6 4 3 3 4 5 4 2 2 1 0 0 1 1 2 3 3 3 3 3 3 3 3 3 2 1
11 9 9 9 8 9 10 10 10 10 9 9 9 9 10 9 9 7 5 5 5 5 6 5 6 3 3 2 1 1 1 2 2 3 3 4 3 3 3 3 3 3 3 2
10 8 8 8 7 7 8 8 8 8 8 9 9 8 8 8 7 6 6 6 7 6 5 4 4 4 4 3 2 1 2 2 3 3 3 3 4 4 4 4 4 4 4 4
7 8 8 8 8 7 7 8 8 9 8 9 10 10 10 9 7 7 6 6 7 7 6 7 5 4 4 4 3 2 2 3 3 3 3 4 4 4 4 4 4 4 4 4
1 4 6 6 6 6 5 6 7 7 8 8 9 8 7 7 7 7 7 7 5 7 6 5 5 7 7 6 3 3 3 3 3 3 3 3 4 4 5 5 5 5 5 4
4 2 2 3 4 4 3 4 6 6 7 8 9 9 9 8 7 7 7 7 5 8 6 5 8 11 10 5 4 4 4 4 4 4 4 4 4 5 5 6 5 5 5 5
8 7 6 4 4 4 3 0 2 3 4 5 6 7 6 5 5 7 6 4 9 10 7 8 13 13 10 5 4 4 4 4 4 4 4 4 4 4 5 5 5 5 5 6
8 8 9 9 8 5 4 3 3 2 0 1 3 4 5 5 6 5 5 6 8 8 6 9 14 13 8 5 5 5 5 5 5 4 4 4 4 4 4 5 5 5 5 5
6 6 5 5 4 4 4 4 4 3 3 2 2 1 2 3 4 3 3 5 7 8 6 5 5 7 5 6 6 6 5 5 5 5 5 4 5 5 4 5 6 5 5 5
5 4 4 4 4 4 4 4 4 4 3 3 3 3 2 2 2 3 4 4 4 5 5 5 5 5 5 6 6 6 5 5 5 5 5 5 4 4 5 6 5 4 5 5
Wind_Direction
79 87 97 86 178 146 143 167 173 225 248 266 273 277 293 306 321 337 344 344 346 343 340 344 351 354 356 358 1 8 20 23 19 18 23 28 30 30 32 35 35 28 30 25
48 51 15 293 242 206 179 180 207 241 265 253 252 262 289 307 325 334 333 336 340 342 343 342 343 344 349 353 354 8 21 16 12 18 23 25 27 30 34 31 26 30 29 25
267 330 0 282 224 197 206 199 182 207 237 248 240 258 268 285 306 313 317 323 330 330 326 323 323 330 340 340 353 14 19 15 13 18 25 22 30 37 34 27 27 30 26 24
113 61 273 248 211 175 190 220 203 216 237 224 225 244 263 257 270 295 309 321 324 323 321 318 316 322 332 351 5 15 19 19 15 19 23 24 35 38 32 28 30 28 27 22
122 222 281 283 190 170 180 250 210 206 229 229 200 11 305 262 251 266 286 296 297 302 301 308 314 315 335 352 359 11 17 21 18 21 25 28 33 29 25 36 36 31 25 23
130 211 255 256 192 149 107 272 221 187 200 178 133 147 267 265 269 285 301 306 311 319 322 331 331 331 347 341 347 352 8 31 34 35 36 33 31 31 31 41 36 28 26 18
163 231 263 246 146 119 150 245 203 174 178 166 179 203 229 280 285 295 311 323 337 343 344 334 334 356 359 341 328 314 77 73 55 45 48 43 41 37 38 37 34 27 20 9
162 207 257 190 148 182 211 215 167 170 172 177 202 224 244 262 273 306 332 341 349 350 341 337 352 13 1 339 321 0 104 84 66 50 45 46 48 41 35 33 34 22 13 7
189 214 231 188 196 204 172 174 179 174 178 178 190 214 221 228 245 300 333 341 346 345 337 343 357 10 354 328 337 103 106 93 81 68 53 46 49 43 35 30 31 21 16 8
249 260 236 225 235 211 187 186 180 173 168 167 181 197 202 206 225 276 313 333 345 352 349 342 343 353 339 331 16 115 117 110 98 84 65 49 47 46 45 33 27 21 15 3
255 268 267 243 211 199 191 179 160 164 171 175 178 187 191 201 218 237 272 310 342 341 327 325 334 342 344 351 62 113 122 122 111 99 89 62 49 41 42 18 11 15 353 343
220 219 193 232 206 178 171 178 174 168 174 180 180 185 187 199 212 219 235 264 318 327 323 325 334 336 339 345 64 137 136 144 142 133 115 84 30 358 336 314 1 27 24 21
202 194 190 243 182 174 179 181 176 176 175 177 184 183 181 193 207 212 223 233 259 290 303 316 327 330 333 338 349 161 162 164 161 162 169 188 333 356 347 346 12 32 28 33
193 143 181 207 192 186 182 179 174 177 179 174 172 175 176 185 198 212 227 233 235 265 293 309 319 322 327 332 347 154 159 170 170 184 197 211 234 273 335 359 354 344 358 22
204 194 203 198 173 171 169 158 163 178 178 178 175 176 181 189 207 221 226 223 216 245 277 297 307 312 326 333 325 173 170 180 180 184 192 199 199 189 150 7 357 340 345 358
189 191 189 176 180 175 167 172 178 187 184 183 185 194 197 200 209 221 224 206 203 233 254 264 277 293 318 328 315 202 206 212 185 180 189 190 190 188 197 237 290 315 326 325
157 184 194 201 197 190 190 188 188 187 183 187 197 199 192 189 205 228 232 220 216 231 241 234 250 288 313 330 314 254 228 231 198 181 200 205 205 208 208 214 238 260 269 270
199 194 183 183 185 191 197 194 188 184 186 195 192 181 182 189 208 222 221 205 212 248 249 232 235 264 281 323 340 293 237 229 210 207 212 211 212 210 207 216 231 242 255 276
208 203 195 194 188 183 187 190 192 192 189 180 178 187 196 202 211 213 189 182 205 234 248 230 224 220 232 261 284 294 283 260 239 225 215 220 217 214 214 220 228 231 230 227
206 202 195 195 187 183 189 188 182 185 185 178 181 189 199 211 207 196 185 204 217 214 217 209 205 212 224 238 247 272 288 276 256 242 224 216 218 223 223 226 228 228 224 219
200 193 188 187 191 195 194 183 178 186 185 177 182 193 203 209 195 179 181 225 242 215 211 215 205 210 214 215 222 240 271 274 264 253 240 229 226 226 227 228 230 227 223 219
161 179 184 182 184 196 198 185 185 187 180 184 195 196 197 202 193 192 208 220 228 191 190 203 206 213 212 205 199 222 249 261 260 255 248 238 230 230 230 228 228 228 223 218
33 55 113 155 175 182 167 180 191 189 189 193 196 196 200 202 185 183 223 228 205 199 193 206 213 218 218 205 199 215 235 247 251 250 250 246 238 233 233 231 226 222 218 215
34 38 44 58 78 83 80 2 204 199 201 206 207 204 197 197 209 218 220 205 186 195 200 214 218 221 214 192 198 211 224 235 242 245 248 250 248 243 238 233 229 222 216 214
33 39 42 47 50 39 18 16 44 52 146 226 236 220 205 196 208 219 206 210 208 203 206 221 224 221 207 194 200 209 217 224 229 232 239 247 251 249 245 238 231 224 215 212
27 35 41 51 51 34 27 35 39 25 22 6 335 294 243 229 227 227 212 212 212 208 207 211 214 213 200 202 209 213 218 230 241 238 235 243 250 253 250 245 240 229 220 214
19 26 29 30 28 26 29 36 34 17 6 0 336 333 322 277 238 228 223 219 214 213 214 211 205 204 205 209 215 218 220 223 228 232 234 237 241 244 248 248 243 234 223 214